STARLINK-11500, 62472

Orbit data source: Space-Track

STARLINK-11500, 62472 is a payload satellite owned by SpaceX/Seattle (US) in LEO that was launched on Tue, 31 Dec 2024 UTC via an FALCON 9 launch vehicle from the Air Force Eastern Test Range (AFETR). Payload-class satellites include a variety of spacecraft equipped with specific instruments for various scientific and technological missions. These include communications satellites like Starlink; space stations such as the ISS; scientific satellites like the Hubble; Earth observation satellites from companies like Planet Labs, Umbra, and HawkEye 360; GPS; miniature CubeSats for education and research; and military/defense satellites.

Loading next visibility...
Identifier
62472, 2024-254L
Orbit
LEO
Country
Flag of USUS
Related business
Manufacturer
SpaceX/Seattle
Mission
Operational Commercial Communications
Bus & Motor
STARLINK V2MD, Unknown motor
Mass
960 kg wet, ~910 kg dry
Launch date (UTC)
2024-12-31 (1 year ago)
Launch vehicle
FALCON 9
Launch site
Air Force Eastern Test Range (AFETR)
Object type
Payload
Rocket body
Debris
Shape & HBR
Box + 2 Pan, 18.1 m
Radar Cross Section
36.964 m², Large (>1 m²)

Expand to show TLE details & history
Last TLE update: 9 hours ago

TLE from 9 hours ago
0 STARLINK-11500
1 62472U 24254L   26034.22291731  .00226647  00000-0  17226-2 0  9997
2 62472  42.9995  70.4523 0001318 249.5949 110.4777 15.70833051 63455
Epoch: 2026-02-03T05:21Z
TLE epoch observation values (Epoch: 2026-02-03T05:21:00.055Z)
Latitude
-0.00003°
Longitude
-143.2049°
Altitude
356.597 km
Speed
7.697 km/s
True Right ascension
04h 41m 48s
True Declination
0° 00' 00"
Sunlit
Object was in full shadow at epoch
Visualization orbit readout
Latitude
Unknown
Longitude
Unknown
Altitude
Unknown
Speed
Unknown
Apparent Right ascension
Unknown
Apparent Declination
Unknown
Sunlit
N/A
Visualization observer readout
Local Sidereal Time
16:33:24
Azimuth
Unknown
Elevation
Unknown
Doppler factor
Unknown
Orbital elements
Apogee altitude
359.384 km
Perigee altitude
357.609 km
Semi-major axis
6,736.634 km
Eccentricity
0.00013
Inclination
42.9995°
RAAN
70.4523°
Arg. of periapsis
249.5949°
True anomaly
110.49185°
Mean anomaly
110.4777°
Eccentric anomaly
110.48477°
Mean motion
3.92535 °/min
Orbital period
91.71 mins
BSTAR
0.0017226
Loading maneuver chart data...
Computing Atmospheric mass density...
Loading historical data...
Loading historical data...
Loading historical data...
Loading historical data...
Loading historical data...
Loading historical data...
Loading historical data...

Documentation

Showing up to 5 results
|